GROUP/SHIP,CRUISE_DESIGNATION,JD_GMT,DATE_DDMMYYYY,TIME_HH:MM:SS,LAT_DEC_DEGREE,LONG_DEC_DEGREE,xCO2W_PPM,xCO2A_PPM,PRES_EQUIL_hPa,PRES_SEALEVEL_hPa,EqTEMP_C,SST(TSG)_C,SAL(TSG)_PERMIL,WATER_FLOW_L/MIN,GAS_FLOW_IR_ML/MIN,TEMP_IR_C,PRES_IR_hPa,SHIP_HEADING_TRUE_DEGREE,SHIP_SPEED_KNOT,WIND_DIR_REL_DEGREE,WIND_SPEED_REL_M/S,fCO2W@SST_uATM,QC_FLAG_WATER,fCO2A_uATM,QC_FLAG_AIR,dfCO2_uATM,FLUORO_uG/L,WIND_SPEED_TRUE_M/S,WIND_DIR_TRUE_DEGREE,AIR_TEMP_C
AOML_Brown,RB200602,71.016,12032006,00:22:29,22.247,-65.474,340.60,385.86,1021.04,1021.75,25.18,25.09,36.32,10.55,262.23,29.99,1021.04,316.20,12.40,66.60,11.59,330.46,2,375.82,2,-45.36,1.01,10.78,58.69,23.77
AOML_Brown,RB200602,71.019,12032006,00:27:10,22.259,-65.485,341.11,385.86,1021.14,1021.90,25.19,25.09,36.33,10.33,274.04,30.23,1021.14,321.90,12.40,70.00,11.48,330.96,2,375.82,2,-44.86,1.00,11.07,63.20,23.77
AOML_Brown,RB200602,71.022,12032006,00:31:31,22.270,-65.495,341.61,385.86,1021.30,1021.95,25.19,25.09,36.33,10.13,274.80,30.44,1021.30,318.70,12.50,67.60,11.09,331.45,2,375.82,2,-44.36,0.99,10.49,64.75,23.65
AOML_Brown,RB200602,71.025,12032006,00:36:13,22.282,-65.506,342.23,385.86,1021.28,1022.04,25.20,25.11,36.32,10.46,277.41,30.62,1021.28,317.70,12.10,47.60,11.39,332.23,2,375.82,2,-43.59,0.99,10.06,56.01,23.82
AOML_Brown,RB200602,71.037,12032006,00:52:37,22.325,-65.546,342.48,385.86,1021.47,1022.20,25.29,25.22,36.25,10.19,274.98,31.18,1021.47,318.10,12.40,41.50,9.89,332.69,2,375.82,2,-43.13,0.99,6.64,43.16,23.77
AOML_Brown,RB200602,71.040,12032006,00:56:59,22.337,-65.557,342.92,385.86,1021.51,1022.28,25.35,25.29,36.24,10.49,274.54,31.29,1021.51,318.70,12.40,71.80,12.18,333.18,2,375.82,2,-42.63,0.98,11.86,64.04,23.82
AOML_Brown,RB200602,71.043,12032006,01:01:40,22.349,-65.568,343.77,385.86,1021.56,1022.35,25.40,25.34,36.24,10.58,269.23,31.39,1021.56,316.90,12.50,59.40,10.98,333.94,2,375.82,2,-41.87,1.00,9.21,55.25,23.80
AOML_Brown,RB200602,71.046,12032006,01:06:01,22.360,-65.578,344.76,385.86,1021.75,1022.42,25.44,25.36,36.24,10.21,270.09,31.47,1021.75,318.60,12.10,64.70,11.19,334.74,2,375.82,2,-41.08,1.01,10.21,60.73,23.80
AOML_Brown,RB200602,71.057,12032006,01:22:46,22.404,-65.619,343.72,384.49,1021.77,1022.65,25.48,25.39,36.22,10.49,272.01,31.73,1021.77,319.00,12.40,66.80,11.98,333.66,2,374.64,2,-40.98,0.96,9.98,60.69,24.00
AOML_Brown,RB200602,71.060,12032006,01:27:07,22.415,-65.630,343.59,384.49,1021.93,1022.68,25.48,25.38,36.22,10.37,267.25,31.78,1021.93,319.60,12.40,65.80,10.39,333.46,2,374.64,2,-41.18,0.98,9.71,64.02,23.75
AOML_Brown,RB200602,71.064,12032006,01:31:28,22.426,-65.640,343.57,384.49,1021.82,1022.66,25.42,25.36,36.23,8.94,266.88,31.82,1021.82,319.50,12.50,50.50,10.28,333.90,2,374.64,2,-40.74,3.22,7.94,50.60,23.75
AOML_Brown,RB200602,71.067,12032006,01:36:09,22.439,-65.652,343.34,384.49,1022.02,1022.71,25.38,25.33,36.23,7.61,265.80,31.85,1022.02,320.90,12.30,59.80,8.99,333.86,2,374.64,2,-40.78,1.39,7.80,63.87,23.80
AOML_Brown,RB200602,71.078,12032006,01:52:34,22.481,-65.691,341.93,384.49,1022.18,1022.97,25.32,25.29,36.24,8.39,244.44,31.98,1022.18,320.50,12.20,70.20,9.99,332.88,2,374.64,2,-41.76,1.36,9.85,66.61,23.75
AOML_Brown,RB200602,71.081,12032006,01:57:15,22.493,-65.702,341.99,384.49,1022.20,1023.04,25.32,25.28,36.24,8.66,246.59,32.00,1022.20,320.90,12.20,67.90,8.29,332.73,2,374.64,2,-41.92,1.30,8.98,67.04,23.82
AOML_Brown,RB200602,71.084,12032006,02:01:36,22.504,-65.713,341.91,384.49,1022.28,1023.02,25.31,25.26,36.23,8.35,249.26,32.02,1022.28,320.30,12.20,66.20,9.99,332.66,2,374.64,2,-41.98,1.26,9.41,62.42,23.75
AOML_Brown,RB200602,71.087,12032006,02:05:58,22.516,-65.723,341.82,384.49,1022.23,1023.06,25.30,25.26,36.24,8.34,255.50,32.03,1022.23,318.80,12.20,72.50,6.09,332.70,2,374.64,2,-41.94,1.08,7.38,86.35,23.77
AOML_Brown,RB200602,71.099,12032006,02:22:42,22.558,-65.764,340.82,384.72,1022.23,1023.07,25.21,25.16,36.26,8.60,246.73,32.11,1022.23,318.40,12.10,72.30,5.09,331.57,2,375.45,2,-43.87,1.03,6.98,91.17,23.85
AOML_Brown,RB200602,71.102,12032006,02:27:04,22.570,-65.774,340.26,384.72,1022.19,1023.12,25.18,25.11,36.27,8.65,254.74,32.12,1022.19,318.40,11.90,66.20,8.19,330.86,2,375.45,2,-44.58,1.02,8.08,67.07,23.77
AOML_Brown,RB200602,71.105,12032006,02:31:45,22.582,-65.785,340.03,384.72,1022.34,1023.12,25.11,25.04,36.28,8.56,258.88,32.12,1022.34,319.30,12.40,71.80,6.69,330.63,2,375.45,2,-44.81,1.03,7.70,78.52,23.87
AOML_Brown,RB200602,71.108,12032006,02:36:06,22.593,-65.796,340.12,384.72,1022.38,1023.11,25.04,24.95,36.30,8.63,255.90,32.11,1022.38,317.90,12.20,83.20,10.09,330.61,2,375.45,2,-44.83,1.00,9.98,62.93,23.57
AOML_Brown,RB200602,71.120,12032006,02:52:31,22.634,-65.834,340.76,384.72,1022.41,1023.26,24.67,24.64,36.46,8.36,236.93,32.14,1022.41,319.10,12.00,65.20,10.59,332.13,2,375.45,2,-43.32,1.00,9.75,61.02,23.72
AOML_Brown,RB200602,71.123,12032006,02:57:12,22.646,-65.845,340.68,384.72,1022.62,1023.36,24.73,24.68,36.43,8.38,255.88,32.14,1022.62,320.50,12.00,69.00,10.69,331.94,2,375.45,2,-43.51,1.00,9.60,65.50,23.62
AOML_Brown,RB200602,71.126,12032006,03:01:33,22.657,-65.855,340.57,384.72,1022.67,1023.36,24.74,24.69,36.43,8.43,255.51,32.13,1022.67,319.00,11.80,69.80,9.49,331.80,2,375.45,2,-43.65,1.04,9.32,68.13,23.62
AOML_Brown,RB200602,71.129,12032006,03:06:15,22.669,-65.866,340.55,384.72,1022.53,1023.40,24.75,24.70,36.43,8.24,256.15,32.11,1022.53,319.10,11.90,67.70,10.69,331.72,2,375.45,2,-43.72,0.98,10.10,63.61,23.55
AOML_Brown,RB200602,71.141,12032006,03:22:39,22.710,-65.905,341.70,384.73,1022.39,1023.32,24.95,24.90,36.39,8.58,244.32,32.11,1022.39,318.50,11.80,72.60,10.39,332.70,2,375.32,2,-42.61,0.97,9.72,60.76,23.60
AOML_Brown,RB200602,71.144,12032006,03:27:20,22.721,-65.916,341.58,384.73,1022.38,1023.20,24.94,24.92,36.37,8.62,253.54,32.11,1022.38,320.90,12.00,59.30,9.39,332.98,2,375.32,2,-42.33,1.00,8.18,60.15,23.60
AOML_Brown,RB200602,71.147,12032006,03:31:42,22.733,-65.926,341.77,384.73,1022.48,1023.19,24.97,24.94,36.38,8.02,248.62,32.09,1022.48,321.00,11.90,65.80,10.69,333.06,2,375.32,2,-42.26,0.97,9.73,62.80,23.55
AOML_Brown,RB200602,71.150,12032006,03:36:03,22.744,-65.936,342.24,384.73,1022.42,1023.22,24.95,24.89,36.37,8.27,244.51,32.07,1022.42,320.50,12.00,51.70,10.19,333.14,2,375.32,2,-42.17,0.98,8.00,50.03,23.52
AOML_Brown,RB200602,71.161,12032006,03:52:27,22.785,-65.976,341.06,384.73,1022.25,1023.09,24.78,24.73,36.39,8.16,237.24,32.10,1022.25,317.60,12.00,61.50,8.89,332.06,2,375.32,2,-43.26,1.02,8.05,64.19,23.52
AOML_Brown,RB200602,71.165,12032006,03:57:09,22.797,-65.987,340.59,384.73,1022.24,1022.97,24.80,24.75,36.40,8.07,238.29,32.12,1022.24,319.40,11.90,64.20,10.09,331.67,2,375.32,2,-43.65,0.97,9.82,60.17,23.48
AOML_Brown,RB200602,71.168,12032006,04:01:30,22.808,-65.997,340.48,384.73,1022.15,1022.95,24.81,24.76,36.40,8.19,229.68,32.13,1022.15,318.80,11.90,60.70,10.19,331.48,2,375.32,2,-43.84,0.96,8.96,60.89,23.43
AOML_Brown,RB200602,71.171,12032006,04:06:11,22.820,-66.008,340.61,384.73,1022.10,1022.93,24.83,24.79,36.40,8.21,238.83,32.15,1022.10,321.60,12.00,60.60,9.99,331.75,2,375.32,2,-43.57,0.96,8.79,60.92,23.43
AOML_Brown,RB200602,71.182,12032006,04:22:36,22.861,-66.046,340.52,384.56,1021.81,1022.65,24.97,24.90,36.32,8.03,241.15,32.25,1021.81,321.60,11.80,76.00,9.59,331.13,2,374.89,2,-43.76,0.96,10.05,77.63,23.38
AOML_Brown,RB200602,71.186,12032006,04:27:17,22.873,-66.057,340.25,384.56,1021.74,1022.61,24.92,24.86,36.33,8.04,241.77,32.27,1021.74,320.40,11.80,55.00,8.29,330.89,2,374.89,2,-44.00,0.95,6.91,63.38,23.33
AOML_Brown,RB200602,71.189,12032006,04:31:38,22.884,-66.067,340.27,384.56,1021.69,1022.48,24.90,24.87,36.36,7.89,244.43,32.28,1021.69,320.10,11.90,74.50,9.59,331.26,2,374.89,2,-43.63,0.96,9.04,77.43,23.40
AOML_Brown,RB200602,71.192,12032006,04:36:00,22.894,-66.078,340.79,384.56,1021.73,1022.49,24.89,24.85,36.37,7.85,245.18,32.29,1021.73,317.60,12.00,64.10,7.29,331.68,2,374.89,2,-43.21,0.98,7.19,75.03,23.43
AOML_Brown,RB200602,71.203,12032006,04:52:44,22.937,-66.118,340.73,384.56,1021.73,1022.47,24.91,24.86,36.36,8.23,242.60,32.36,1021.73,319.70,12.20,63.70,10.19,331.56,2,374.89,2,-43.33,0.97,9.04,66.13,23.28
AOML_Brown,RB200602,71.206,12032006,04:57:06,22.948,-66.128,340.89,384.56,1021.75,1022.48,24.90,24.86,36.34,8.05,247.64,32.37,1021.75,320.20,12.00,66.00,9.19,331.86,2,374.89,2,-43.02,0.99,8.36,68.00,23.28
AOML_Brown,RB200602,71.210,12032006,05:01:47,22.960,-66.139,340.73,384.56,1021.59,1022.49,24.96,24.97,36.32,8.16,248.29,32.37,1021.59,320.60,12.10,62.70,8.59,332.19,2,374.89,2,-42.70,0.97,7.96,70.18,23.20
AOML_Brown,RB200602,71.213,12032006,05:06:08,22.971,-66.149,340.71,384.56,1021.60,1022.38,25.02,24.99,36.31,8.28,249.54,32.38,1021.60,319.20,12.00,62.50,8.79,331.68,2,374.89,2,-43.20,0.98,8.02,69.32,23.28
AOML_Brown,RB200602,71.224,12032006,05:22:33,23.013,-66.188,340.38,384.61,1021.34,1022.14,24.91,24.84,36.30,7.98,258.24,32.43,1021.34,319.20,12.20,61.40,8.59,330.87,2,374.65,2,-43.77,0.96,7.83,66.37,23.33
AOML_Brown,RB200602,71.227,12032006,05:27:14,23.025,-66.199,339.87,384.61,1021.27,1022.09,24.86,24.82,36.32,7.77,260.52,32.44,1021.27,318.40,12.00,64.50,7.29,330.63,2,374.65,2,-44.02,0.97,7.24,75.96,23.20
AOML_Brown,RB200602,71.230,12032006,05:31:35,23.036,-66.210,339.93,384.61,1021.24,1021.97,24.87,24.87,36.34,8.16,264.52,32.44,1021.24,318.90,12.10,61.60,9.09,331.23,2,374.65,2,-43.42,0.99,8.15,65.83,23.15
AOML_Brown,RB200602,71.234,12032006,05:36:17,23.048,-66.221,340.59,384.61,1021.15,1021.97,24.94,24.92,36.36,8.01,258.60,32.44,1021.15,319.50,12.10,56.10,8.59,331.52,2,374.65,2,-43.13,1.04,7.29,64.18,23.18
AOML_Brown,RB200602,71.245,12032006,05:52:41,23.090,-66.260,341.48,384.61,1020.94,1021.78,24.98,24.97,36.33,7.91,260.51,32.48,1020.94,319.30,12.00,63.30,9.59,332.43,2,374.65,2,-42.22,1.03,8.77,63.48,23.18
AOML_Brown,RB200602,71.248,12032006,05:57:02,23.102,-66.271,342.06,384.61,1020.81,1021.64,25.05,25.02,36.34,7.90,262.04,32.49,1020.81,318.40,12.10,69.00,9.29,332.74,2,374.65,2,-41.91,1.05,9.17,70.29,23.13
AOML_Brown,RB200602,71.251,12032006,06:01:44,23.114,-66.283,342.75,384.61,1020.80,1021.62,25.06,25.02,36.34,8.04,253.98,32.49,1020.80,318.30,12.30,66.10,8.49,333.27,2,374.65,2,-41.38,1.03,8.28,72.32,23.13
AOML_Brown,RB200602,71.254,12032006,06:06:05,23.125,-66.293,343.08,384.61,1020.81,1021.60,25.05,25.01,36.33,8.04,258.62,32.48,1020.81,318.20,12.20,65.60,7.19,333.50,2,374.65,2,-41.15,1.03,7.38,77.89,23.08
AOML_Brown,RB200602,71.266,12032006,06:22:29,23.167,-66.333,342.92,384.55,1020.53,1021.40,25.02,24.98,36.33,7.89,250.62,32.51,1020.53,319.20,12.30,66.40,8.69,333.27,2,374.28,2,-41.01,1.04,8.46,71.29,23.05
AOML_Brown,RB200602,71.269,12032006,06:27:11,23.179,-66.344,342.47,384.55,1020.47,1021.33,25.02,24.98,36.33,7.93,254.12,32.52,1020.47,320.60,12.20,60.00,7.19,332.83,2,374.28,2,-41.45,1.03,6.80,74.88,23.13
AOML_Brown,RB200602,71.272,12032006,06:31:32,23.190,-66.354,342.49,384.55,1020.55,1021.24,25.02,24.98,36.33,8.04,261.76,32.52,1020.55,320.20,10.90,72.40,9.49,332.88,2,374.28,2,-41.40,1.01,9.38,67.91,23.15
AOML_Brown,RB200602,71.275,12032006,06:36:13,23.202,-66.365,342.74,384.55,1020.47,1021.25,25.02,24.97,36.34,7.79,259.76,32.51,1020.47,319.50,12.10,59.20,7.29,333.02,2,374.28,2,-41.26,1.03,6.76,72.61,23.18
AOML_Brown,RB200602,71.287,12032006,06:52:38,23.245,-66.405,342.92,384.55,1020.27,1021.27,25.02,24.98,36.34,8.19,264.11,32.53,1020.27,319.60,12.20,57.70,6.59,333.18,2,374.28,2,-41.10,1.03,6.12,80.47,23.18
AOML_Brown,RB200602,71.290,12032006,06:57:19,23.257,-66.416,342.97,384.55,1020.42,1021.30,25.04,25.01,36.35,7.88,259.85,32.53,1020.42,316.80,12.10,64.50,6.79,333.44,2,374.28,2,-40.85,1.05,6.96,77.51,23.25
AOML_Brown,RB200602,71.293,12032006,07:01:40,23.268,-66.427,342.97,384.55,1020.35,1021.15,25.05,25.01,36.35,8.04,255.14,32.52,1020.35,319.30,12.20,75.20,7.99,333.32,2,374.28,2,-40.96,1.07,8.81,76.24,23.28
AOML_Brown,RB200602,71.296,12032006,07:06:01,23.279,-66.438,342.90,384.55,1020.34,1021.11,25.05,25.00,36.36,8.05,248.95,32.50,1020.34,318.20,12.20,55.30,7.19,333.12,2,374.28,2,-41.16,1.06,7.23,75.38,23.35
AOML_Brown,RB200602,71.307,12032006,07:22:46,23.322,-66.478,342.93,384.53,1020.14,1020.99,25.02,24.98,36.35,7.93,246.87,32.51,1020.14,321.30,12.20,64.40,9.89,333.16,2,374.33,2,-41.17,1.02,9.16,63.79,22.95
AOML_Brown,RB200602,71.310,12032006,07:27:07,23.333,-66.489,342.68,384.53,1020.28,1021.01,25.00,24.95,36.35,7.96,243.90,32.51,1020.28,321.50,12.40,62.10,9.29,332.86,2,374.33,2,-41.46,1.02,8.44,63.28,22.95
AOML_Brown,RB200602,71.314,12032006,07:31:29,23.345,-66.499,342.68,384.53,1020.19,1021.00,24.98,24.92,36.35,7.96,239.94,32.50,1020.19,319.70,12.60,59.40,8.69,332.80,2,374.33,2,-41.53,1.03,7.76,64.39,22.98
AOML_Brown,RB200602,71.317,12032006,07:36:10,23.357,-66.511,342.62,384.53,1020.25,1020.97,24.95,24.89,36.35,7.84,240.70,32.50,1020.25,318.40,12.40,65.80,10.28,332.78,2,374.33,2,-41.55,0.99,9.63,61.19,23.05
AOML_Brown,RB200602,71.328,12032006,07:52:34,23.399,-66.551,342.72,384.53,1020.14,1020.87,24.84,24.80,36.37,7.91,240.42,32.52,1020.14,319.20,12.30,61.20,12.18,333.12,2,374.33,2,-41.21,0.99,11.01,57.11,22.68
AOML_Brown,RB200602,71.331,12032006,07:57:16,23.412,-66.562,342.68,384.53,1020.23,1021.00,24.86,24.81,36.36,7.95,238.91,32.53,1020.23,318.80,12.50,59.90,10.69,333.00,2,374.33,2,-41.33,0.98,9.30,55.30,22.53
AOML_Brown,RB200602,71.334,12032006,08:01:37,23.423,-66.573,342.68,384.53,1020.24,1021.05,24.87,24.84,36.36,7.43,243.00,32.52,1020.24,317.60,12.20,72.50,11.88,333.21,2,374.33,2,-41.11,1.02,11.56,61.21,22.00
AOML_Brown,RB200602,71.338,12032006,08:06:18,23.435,-66.585,342.56,384.53,1020.27,1021.04,24.88,24.85,36.35,7.53,246.67,32.51,1020.27,319.70,12.20,60.80,10.89,333.12,2,374.33,2,-41.20,1.01,9.55,56.69,21.36
AOML_Brown,RB200602,71.349,12032006,08:22:43,23.477,-66.624,342.38,384.63,1020.55,1021.26,24.83,24.75,36.36,7.44,246.31,32.53,1020.55,316.90,12.40,61.70,8.99,332.43,2,374.59,2,-42.15,1.02,8.19,63.59,20.86
AOML_Brown,RB200602,71.352,12032006,08:27:04,23.489,-66.634,341.80,384.63,1020.59,1021.37,24.78,24.73,36.34,7.63,249.13,32.52,1020.59,318.90,12.10,83.10,5.00,332.22,2,374.59,2,-42.37,0.98,7.50,97.50,20.78
AOML_Brown,RB200602,71.355,12032006,08:31:45,23.501,-66.646,341.63,384.63,1020.63,1021.34,24.78,24.75,36.35,7.55,245.70,32.49,1020.63,318.20,12.00,58.60,5.59,332.32,2,374.59,2,-42.27,0.98,5.78,83.63,21.28
AOML_Brown,RB200602,71.358,12032006,08:36:07,23.512,-66.656,341.92,384.63,1020.61,1021.33,24.81,24.79,36.35,7.13,250.11,32.46,1020.61,320.00,12.00,69.10,7.59,332.78,2,374.59,2,-41.81,0.99,7.91,76.29,21.85
AOML_Brown,RB200602,71.370,12032006,08:52:31,23.554,-66.696,343.52,384.63,1020.84,1021.55,24.87,24.85,36.34,7.58,254.43,32.39,1020.84,319.80,12.30,68.10,0.70,334.39,2,374.59,2,-40.20,0.99,6.40,132.76,22.00
AOML_Brown,RB200602,71.373,12032006,08:57:12,23.566,-66.707,343.36,384.63,1020.87,1021.71,24.92,24.92,36.34,7.58,255.53,32.38,1020.87,319.70,12.10,94.30,0.50,334.37,2,374.59,2,-40.21,0.98,6.33,133.79,21.98
AOML_Brown,RB200602,71.376,12032006,09:01:34,23.577,-66.718,343.25,384.63,1020.91,1021.82,24.93,24.91,36.33,7.46,249.83,32.36,1020.91,318.50,12.40,73.60,3.49,334.00,2,374.59,2,-40.58,0.98,6.35,105.94,21.56
AOML_Brown,RB200602,71.379,12032006,09:06:15,23.590,-66.729,343.31,384.63,1020.86,1021.75,24.96,24.94,36.34,7.72,253.42,32.34,1020.86,319.20,12.30,62.50,5.49,334.12,2,374.59,2,-40.46,0.98,6.17,86.48,21.63
AOML_Brown,RB200602,71.391,12032006,09:22:40,23.632,-66.769,343.60,384.59,1020.68,1021.43,24.98,24.94,36.36,7.50,252.62,32.34,1020.68,320.10,12.20,65.00,12.29,334.10,2,374.57,2,-40.47,0.97,11.19,56.22,22.85
AOML_Brown,RB200602,71.394,12032006,09:27:21,23.645,-66.781,343.15,384.59,1020.69,1021.48,24.97,24.94,36.36,7.56,254.93,32.33,1020.69,319.80,12.40,52.30,11.98,333.77,2,374.57,2,-40.80,0.99,10.82,54.88,22.75
AOML_Brown,RB200602,71.397,12032006,09:31:42,23.656,-66.791,342.98,384.59,1020.75,1021.57,24.96,24.93,36.36,7.63,244.00,32.31,1020.75,319.60,12.20,59.40,12.09,333.55,2,374.57,2,-41.02,0.98,10.40,49.60,22.83
AOML_Brown,RB200602,71.400,12032006,09:36:03,23.667,-66.802,342.96,384.59,1020.73,1021.58,24.95,24.91,36.36,8.26,250.65,32.30,1020.73,320.00,12.30,63.10,13.08,333.47,2,374.57,2,-41.10,0.98,11.67,51.45,22.85
AOML_Brown,RB200602,71.412,12032006,09:52:48,23.711,-66.843,343.93,384.59,1020.75,1021.67,24.92,24.86,36.38,7.94,249.31,32.29,1020.75,318.20,12.50,65.90,10.98,334.24,2,374.57,2,-40.33,0.98,10.22,56.67,22.65
AOML_Brown,RB200602,71.415,12032006,09:57:09,23.722,-66.854,343.83,384.59,1020.83,1021.55,24.88,24.84,36.37,7.93,255.08,32.28,1020.83,317.00,12.40,66.00,10.89,334.35,2,374.57,2,-40.22,0.98,10.15,56.79,22.85
AOML_Brown,RB200602,71.418,12032006,10:01:30,23.734,-66.865,343.46,384.59,1020.89,1021.58,24.86,24.81,36.38,7.87,258.13,32.27,1020.89,317.90,12.50,59.40,12.68,333.91,2,374.57,2,-40.66,0.98,10.92,46.37,22.78
AOML_Brown,RB200602,71.421,12032006,10:06:12,23.746,-66.877,343.02,384.59,1021.06,1021.70,24.83,24.79,36.37,7.79,247.68,32.25,1021.06,319.80,12.50,59.20,11.29,333.66,2,374.57,2,-40.91,0.99,9.72,50.84,22.78
AOML_Brown,RB200602,71.432,12032006,10:22:36,23.789,-66.917,342.25,384.49,1021.10,1021.70,24.81,24.77,36.38,7.92,260.04,32.27,1021.10,318.80,12.40,68.50,13.78,332.95,2,374.55,2,-41.60,0.97,12.89,52.41,22.78
AOML_Brown,RB200602,71.436,12032006,10:27:18,23.801,-66.929,342.07,384.49,1021.04,1021.80,24.81,24.80,36.38,7.85,262.25,32.27,1021.04,317.60,12.40,65.40,12.68,333.20,2,374.55,2,-41.35,0.97,11.59,51.96,22.93
AOML_Brown,RB200602,71.439,12032006,10:31:39,23.813,-66.940,342.13,384.49,1021.11,1021.93,24.87,24.85,36.39,7.73,260.33,32.27,1021.11,318.50,12.50,79.40,10.49,333.11,2,374.55,2,-41.44,0.97,11.25,68.20,22.98
AOML_Brown,RB200602,71.442,12032006,10:36:00,23.824,-66.951,342.75,384.49,1021.20,1021.91,24.88,24.86,36.39,7.68,265.48,32.26,1021.20,318.50,12.60,71.40,9.29,333.69,2,374.55,2,-40.86,0.96,9.46,68.01,23.00
AOML_Brown,RB200602,71.453,12032006,10:52:45,23.869,-66.993,344.37,384.49,1021.26,1022.00,25.00,24.98,36.36,7.62,259.16,32.28,1021.26,318.90,12.70,74.10,12.09,335.29,2,374.55,2,-39.26,0.97,12.05,62.66,22.98
AOML_Brown,RB200602,71.456,12032006,10:57:06,23.880,-67.004,344.54,384.49,1021.33,1022.06,25.01,25.00,36.35,7.91,259.26,32.28,1021.33,319.20,12.60,78.60,9.89,335.47,2,374.55,2,-39.07,0.97,10.72,70.39,22.88
AOML_Brown,RB200602,71.460,12032006,11:01:47,23.893,-67.015,344.70,384.49,1021.31,1022.07,25.06,25.03,36.34,7.71,258.68,32.28,1021.31,319.20,12.80,75.30,6.99,335.45,2,374.55,2,-39.09,0.98,9.09,75.15,23.03
AOML_Brown,RB200602,71.463,12032006,11:06:09,23.905,-67.027,344.85,384.49,1021.23,1022.11,25.08,25.07,36.31,7.82,257.53,32.27,1021.23,317.30,12.90,60.60,9.49,335.74,2,374.55,2,-38.81,0.96,8.47,58.69,22.95
AOML_Brown,RB200602,71.474,12032006,11:22:33,23.950,-67.069,344.80,384.45,1021.40,1022.22,25.11,25.08,36.20,7.85,257.08,32.29,1021.40,320.90,13.20,76.60,9.79,335.56,2,374.80,2,-39.24,0.99,10.56,72.27,22.93
AOML_Brown,RB200602,71.477,12032006,11:27:14,23.962,-67.081,344.59,384.45,1021.64,1022.31,25.10,25.05,36.21,7.82,252.16,32.30,1021.64,317.30,13.00,72.70,11.88,335.17,2,374.80,2,-39.63,0.99,11.76,61.19,22.95
AOML_Brown,RB200602,71.480,12032006,11:31:36,23.974,-67.093,344.59,384.45,1021.64,1022.37,25.07,25.03,36.21,7.87,255.62,32.30,1021.64,318.70,12.80,62.70,12.09,335.22,2,374.80,2,-39.58,0.98,10.79,51.44,22.93
AOML_Brown,RB200602,71.484,12032006,11:36:17,23.987,-67.105,344.55,384.45,1021.82,1022.47,25.04,24.98,36.21,7.65,259.79,32.29,1021.82,318.10,13.00,64.30,11.79,335.13,2,374.80,2,-39.67,0.98,9.92,57.50,22.75
AOML_Brown,RB200602,71.495,12032006,11:52:42,24.032,-67.148,343.04,384.45,1021.93,1022.64,24.86,24.80,36.26,7.79,260.11,32.33,1021.93,318.30,13.20,67.40,11.48,333.73,2,374.80,2,-41.07,0.97,10.87,59.14,22.73
AOML_Brown,RB200602,71.498,12032006,11:57:03,24.044,-67.159,342.62,384.45,1021.94,1022.70,24.79,24.72,36.29,7.93,260.07,32.32,1021.94,316.50,12.80,73.10,11.79,333.24,2,374.80,2,-41.56,0.97,11.74,60.03,22.68
AOML_Brown,RB200602,71.501,12032006,12:01:44,24.056,-67.172,342.27,384.45,1022.00,1022.81,24.73,24.65,36.31,8.21,252.45,32.30,1022.00,319.80,12.90,73.70,12.58,332.83,2,374.80,2,-41.97,0.98,12.82,63.01,22.63
AOML_Brown,RB200602,71.504,12032006,12:06:05,24.068,-67.183,341.92,384.45,1022.07,1022.70,24.62,24.53,36.35,7.93,268.36,32.27,1022.07,317.10,12.60,64.80,12.18,332.42,2,374.80,2,-42.38,0.98,11.10,53.80,22.68
AOML_Brown,RB200602,71.516,12032006,12:22:50,24.110,-67.228,340.59,384.59,1022.55,1023.31,24.24,24.14,36.51,7.86,257.80,32.22,1022.55,314.50,12.80,64.80,8.99,331.50,2,375.70,2,-44.20,0.97,8.03,68.99,22.65
AOML_Brown,RB200602,71.519,12032006,12:27:11,24.121,-67.240,340.10,384.59,1022.71,1023.45,24.17,24.18,36.55,7.80,267.87,32.20,1022.71,314.70,12.60,69.80,9.09,332.45,2,375.70,2,-43.25,0.97,9.16,65.92,22.68
AOML_Brown,RB200602,71.522,12032006,12:31:32,24.132,-67.252,340.57,384.59,1022.60,1023.42,24.27,24.22,36.56,8.04,268.92,32.17,1022.60,313.50,12.90,68.50,10.59,332.10,2,375.70,2,-43.60,1.00,10.23,62.03,22.50
AOML_Brown,RB200602,71.525,12032006,12:36:14,24.143,-67.265,341.27,384.59,1022.70,1023.52,24.28,24.24,36.55,7.72,266.98,32.14,1022.70,316.60,12.60,55.90,8.19,332.82,2,375.70,2,-42.88,1.00,7.87,56.81,22.60
AOML_Brown,RB200602,71.537,12032006,12:52:38,24.188,-67.306,341.03,384.59,1022.71,1023.54,24.26,24.18,36.53,8.02,256.43,32.10,1022.71,323.30,12.50,61.90,9.29,332.10,2,375.70,2,-43.61,1.06,8.46,68.73,22.70
AOML_Brown,RB200602,71.540,12032006,12:57:19,24.201,-67.317,340.76,384.59,1022.79,1023.53,24.18,24.10,36.56,8.00,255.84,32.09,1022.79,322.40,12.70,63.20,10.39,331.92,2,375.70,2,-43.78,0.98,9.46,65.29,22.70
AOML_Brown,RB200602,71.543,12032006,13:01:41,24.213,-67.327,340.41,384.59,1022.97,1023.57,24.05,23.93,36.59,7.66,257.60,32.07,1022.97,323.20,12.70,80.50,9.89,331.24,2,375.70,2,-44.46,1.05,10.96,81.47,22.75
AOML_Brown,RB200602,71.546,12032006,13:06:02,24.225,-67.337,339.93,384.59,1022.86,1023.68,23.93,23.82,36.62,8.16,251.85,32.05,1022.86,322.60,12.60,61.50,11.79,330.96,2,375.70,2,-44.74,0.97,10.39,58.45,22.65
AOML_Brown,RB200602,71.557,12032006,13:22:47,24.272,-67.376,338.82,384.68,1023.15,1023.90,23.70,23.64,36.69,7.87,257.27,32.02,1023.15,323.60,12.30,53.80,9.79,330.69,2,376.28,2,-45.59,0.99,8.79,54.17,22.63
AOML_Brown,RB200602,71.561,12032006,13:27:08,24.283,-67.386,338.45,384.68,1023.24,1024.03,23.74,23.70,36.69,7.78,256.80,32.01,1023.24,321.50,12.30,64.90,10.59,330.62,2,376.28,2,-45.66,0.97,9.77,63.24,22.60
AOML_Brown,RB200602,71.564,12032006,13:31:49,24.296,-67.397,338.69,384.68,1023.12,1024.04,23.79,23.74,36.68,7.96,256.51,31.99,1023.12,320.50,12.40,61.20,10.89,330.62,2,376.28,2,-45.66,0.97,9.61,58.68,22.65
AOML_Brown,RB200602,71.567,12032006,13:36:10,24.308,-67.407,338.96,384.68,1023.24,1024.08,23.83,23.80,36.67,7.72,290.48,31.97,1023.24,318.10,12.30,62.20,10.09,331.17,2,376.28,2,-45.10,0.97,9.39,63.69,22.63
AOML_Brown,RB200602,71.578,12032006,13:52:35,24.350,-67.448,338.88,384.68,1023.46,1024.13,24.02,24.02,36.62,7.83,314.29,31.95,1023.46,319.30,12.30,65.60,9.89,331.47,2,376.28,2,-44.81,0.93,9.29,64.60,22.55
AOML_Brown,RB200602,71.581,12032006,13:57:16,24.363,-67.459,339.02,384.68,1023.38,1024.14,24.12,24.12,36.60,7.85,319.82,31.95,1023.38,320.20,12.40,68.70,10.59,331.46,2,376.28,2,-44.82,0.93,10.09,66.36,22.63
AOML_Brown,RB200602,71.584,12032006,14:01:38,24.374,-67.470,339.39,384.68,1023.44,1024.23,24.20,24.19,36.57,7.71,367.61,31.94,1023.44,317.30,12.60,63.30,9.99,331.67,2,376.28,2,-44.61,0.93,9.14,63.01,22.70
AOML_Brown,RB200602,71.588,12032006,14:06:19,24.386,-67.482,340.05,384.68,1023.45,1024.24,24.24,24.21,36.56,7.81,380.49,31.93,1023.45,317.30,12.50,68.90,9.49,332.13,2,376.28,2,-44.15,1.02,9.35,67.92,22.63
AOML_Brown,RB200602,71.599,12032006,14:22:43,24.429,-67.523,339.63,384.75,1023.41,1024.15,24.22,24.16,36.55,7.97,370.26,31.96,1023.41,318.80,12.60,61.40,10.09,331.32,2,376.14,2,-44.82,0.98,8.97,61.89,22.75